Location: Bothwell
(41.7170°N, 112.2589°W)
Time: 01:50:31
(UTC+00:00)

Tiros 1 - Pass Details

Date: 18 May 2026
Orbit: 618 x 649 km, 48.4° (Epoch: 6 June)

Event Time Altitude Azimuth Distance (km) Brightness Sun altitude
Rises 08:18:24 0° 278° (W) 2,916 - -27.5°
Reaches altitude 10° 08:20:53 10° 287° (WNW) 2,003 - -27.4°
Exits shadow 08:22:18 18° 298° (WNW) 1,529 9.1 -27.3°
Maximum altitude 08:25:08 36° 355° (N) 995 8.5 -27.2°
Drops below altitude 10° 08:29:22 10° 62° (ENE) 1,989 10.2 -26.9°
Sets 08:31:50 0° 71° (ENE) 2,891 11.0 -26.8°
